[[{"header":{"parameterUnit":"m.s-1","parameterCategory":1,"la1":30.2991,"la2":30.254,"lo1":-89.0895,"lo2":-89.0444,"dy":0.0017,"dx":0.0017,"nx":28,"ny":28,"refTime":"2023-09-05T21:00:00:Z","depth":0,"parameterNumber":2,"parameterNumberName":"U-component_of_WINDS"},"data":[0,0,0,0,0,0,0,0,0,0,0,0,0,0,0,0,0,0,0,0,0,0,0,0,0,0,0,0,0,0,0,0,0,0,0,0,0,0,0,0,0,0,0,0,0,0,0,0,0,0,0,0,0,0,0,0,0,0,-2.9826,-2.9826,0,-2.991,-2.9911,-2.9912,-2.9863,-2.9861,-2.9858,-2.9856,-2.9942,-2.9946,-2.995,0,0,0,0,0,0,0,0,0,0,0,0,0,-2.962,-2.9624,-2.9825,-2.9826,-2.9828,-2.991,-2.9911,-2.9912,-2.9864,-2.9861,-2.9858,-2.9855,-2.994,-2.9945,-2.9951,0,0,0,0,0,0,0,0,0,0,0,0,0,-2.9707,-2.9625,-2.9825,-2.9813,-2.9813,-2.991,-2.9911,-2.9913,-2.9864,-2.9861,-2.9857,-2.9854,-2.9938,-2.9945,-2.9952,-3.0065,0,0,-2.9972,-2.9975,0,0,0,0,0,0,0,0,-2.9703,-2.9715,-2.9814,-2.9814,-2.9814,-2.9872,-2.987,-2.9964,-2.9865,-2.9845,-2.9856,-2.9852,-2.9921,-2.9929,-2.9953,-3.0069,-3.0072,-2.9973,-2.9977,-2.998,-2.9982,0,0,0,0,0,0,0,-2.9697,-2.9711,-2.9859,-2.9815,-2.9816,-2.9803,-2.9812,-2.9888,-2.9902,-2.9846,-2.9843,-2.9854,-2.9921,-2.9947,-2.9955,-3.0074,-2.9973,-2.9979,-2.9983,-2.9985,-3.0285,-3.0289,0,0,0,0,0,0,-2.9691,-2.9706,-2.9856,-2.9861,-2.9748,-2.981,-2.9819,-2.9857,-2.9901,-2.9904,-2.9857,-2.9851,-2.9937,-2.9947,-2.9958,-3.0091,-2.998,-2.9986,-2.999,-3.0281,-3.0286,-3.029,0,0,0,0,0,0,-2.9687,-2.9705,-2.9853,-2.9783,-2.9801,-2.9817,-2.986,-2.9861,-2.9887,-2.9909,-2.9911,-2.988,-2.9934,-2.9948,-3.0038,-3.0094,-2.9989,-2.9995,-3.0277,-3.0283,-3.0288,-3.0361,0,0,0,0,0,0,-2.9682,-2.9704,-2.9748,-2.9784,-2.9805,-2.9933,-2.9864,-2.9865,-2.9899,-2.9892,-2.9932,-2.9935,-2.9933,-3.0028,-3.0045,-3.0101,-3.0001,-3.0272,-3.0279,-3.0286,-3.0354,-3.0369,-3.0381,0,0,0,0,0,-2.9674,-2.9765,-2.975,-2.9768,-2.986,-2.9936,-2.9947,-2.9943,-2.9903,-2.9947,-2.9961,-2.9934,-3.0086,-3.0038,-3.0056,-3.0115,-3.0268,-3.0277,-3.0286,-3.0347,-3.0366,-3.0381,0,0,0,0,0,0,-2.9734,-2.9769,-2.9753,-2.9858,-2.9895,-2.9928,-2.9982,-2.9963,-3.0011,-3.0003,-2.9995,-3.0005,-3.0098,-3.0116,-3.0063,-3.0226,-3.017,-3.0183,-3.0211,-3.0229,-3.0242,-3.0235,-3.0006,0,0,0,0,0,-2.9759,-2.9819,-2.9846,-2.9936,-2.9955,-2.9966,-2.9999,-2.9993,-3.003,-3.0045,-3.0065,-3.0102,-3.0158,-3.0194,-3.0247,-3.0357,-3.0364,-3.0406,-3.042,-3.0431,-3.0442,-3.05,-3.0518,-3.0319,-3.0319,-3.0319,0,0,-2.9812,-2.9839,-2.9877,-2.9949,-2.9976,-3.0037,-2.9979,-3.0046,-3.0091,-3.0055,-3.014,-3.0158,-3.0198,-3.0298,-3.0343,-3.0315,-3.0499,-3.0443,-3.0451,-3.0456,-3.0511,-3.0529,-3.0546,-3.0325,-3.0324,-3.0323,0,0,-2.9939,-2.9966,-3.0043,-3.0072,-3.0114,-3.012,-3.0139,-3.0175,-3.0184,-3.0271,-3.0244,-3.0298,-3.0395,-3.0424,-3.0451,-3.059,-3.0566,-3.0607,-3.0679,-3.0735,-3.0751,-3.0765,-3.0812,-3.083,-3.0618,-3.0618,-3.0619,0,-2.9999,-3.009,-3.0085,-3.0154,-3.0186,-3.0157,-3.0234,-3.0262,-3.0319,-3.0342,-3.031,-3.043,-3.0456,-3.0561,-3.0595,-3.0619,-3.0639,-3.0602,-3.0749,-3.0763,-3.0776,-3.0821,-3.0839,-3.0623,-3.0622,-3.0622,-3.0622,0,-3.0161,-3.0224,-3.0282,-3.0337,-3.0376,-3.0449,-3.0455,-3.0495,-3.0485,-3.0495,-3.0583,-3.0612,-3.0669,-3.0695,-3.0686,-3.0799,-3.0781,-3.075,-3.0693,-3.0799,-3.0842,-3.0859,-3.063,-3.0628,-3.0627,-3.0625,0,0,-3.0326,-3.0378,-3.0399,-3.0423,-3.0468,-3.0517,-3.0588,-3.0645,-3.0678,-3.0719,-3.0778,-3.086,-3.0832,-3.0863,-3.0858,-3.0908,-3.1014,-3.0871,-3.0871,-3.0894,-3.1138,-3.1159,-3.1179,-3.0999,-3.1002,-3.1005,-3.1134,0,-3.0454,-3.0578,-3.0576,-3.0692,-3.075,-3.0723,-3.0785,-3.0819,-3.083,-3.088,-3.0892,-3.095,-3.0909,-3.0928,-3.0976,-3.099,-3.1062,-3.0982,-3.1052,-3.1055,-3.1041,-3.1202,-3.1225,-3.1344,-3.115,-3.1153,-3.1155,0,-3.0619,-3.0665,-3.0787,-3.0822,-3.0846,-3.0902,-3.0953,-3.1002,-3.1039,-3.1044,-3.1079,-3.1066,-3.1138,-3.1081,-3.1179,-3.1125,-3.1154,-3.1165,-3.117,-3.1174,-3.111,-3.1208,-3.1383,-3.14,-3.1181,-3.1179,-3.1177,0,-3.0725,-3.0818,-3.0901,-3.0924,-3.0967,-3.1007,-3.1027,-3.1061,-3.1095,-3.1139,-3.1161,-3.1214,-3.1242,-3.1283,-3.1285,-3.1244,-3.1384,-3.1327,-3.1388,-3.1388,-3.1417,-3.1415,-3.1596,-3.144,-3.1439,-3.1439,-3.1439,0,-3.0867,-3.0942,-3.0949,-3.1001,-3.1083,-3.108,-3.1162,-3.1178,-3.1209,-3.1263,-3.1244,-3.1294,-3.1294,-3.1346,-3.1348,-3.1428,-3.1441,-3.1446,-3.1445,-3.1447,-3.1446,-3.1464,-3.1455,-3.1444,-3.1443,-3.1442,-3.1441,0,-3.0998,-3.1006,-3.1096,-3.113,-3.114,-3.1199,-3.1228,-3.1277,-3.1287,-3.1355,-3.1371,-3.1386,-3.1445,-3.1451,-3.1521,-3.1522,-3.1618,-3.161,-3.1606,-3.1603,-3.1663,-3.1657,-3.1861,-3.1887,-3.1716,-3.1717,-3.1719,0,-3.1087,-3.1144,-3.1184,-3.1218,-3.124,-3.1297,-3.1331,-3.133,-3.1367,-3.1414,-3.1456,-3.1514,-3.156,-3.1657,-3.1674,-3.1727,-3.1718,-3.1786,-3.1726,-3.1725,-3.1717,-3.1712,-3.1717,-3.1797,-3.1799,-3.18,-3.1802,0,-3.1243,-3.1244,-3.1295,-3.1347,-3.1388,-3.1429,-3.1467,-3.1497,-3.1501,-3.1543,-3.1603,-3.1639,-3.171,-3.1767,-3.1819,-3.1839,-3.1821,-3.1821,-3.1837,-3.1838,-3.1832,-3.1834,-3.1635,-3.1815,-3.1814,-3.1813,-3.1812,-3.1812,-3.1355,-3.1403,-3.1439,-3.1495,-3.1524,-3.156,-3.1607,-3.1622,-3.1673,-3.1731,-3.1727,-3.1794,-3.183,-3.1898,-3.1922,-3.1974,-3.1951,-3.1975,-3.1981,-3.1987,-3.1992,-3.1826,-3.1983,-3.1983,-3.1983,-3.1982,-3.1982,0,-3.1508,-3.153,-3.1582,-3.1635,-3.168,-3.1659,-3.1701,-3.1739,-3.1798,-3.1833,-3.1878,-3.1948,-3.2003,-3.2025,-3.2079,-3.2116,-3.2109,-3.213,-3.2126,-3.2131,-3.201,-3.1989,-3.2135,-3.2135,-3.2135,-3.2135,-3.2135,-3.2135,-3.1593,-3.1674,-3.1679,-3.1774,-3.1795,-3.186,-3.1885,-3.1918,-3.1945,-3.2024,-3.2069,-3.2083,-3.2113,-3.2169,-3.2218,-3.2223,-3.2243,-3.2268,-3.2269,-3.2155,-3.214,-3.2125,-3.2105,-3.2273,-3.2273,-3.2385,-3.2386,-3.2387]},{"header":{"parameterUnit":"m.s-1","parameterCategory":1,"la1":30.2991,"la2":30.254,"lo1":-89.0895,"lo2":-89.0444,"dy":0.0017,"dx":0.0017,"nx":28,"ny":28,"refTime":"2023-09-05T21:00:00:Z","depth":0,"parameterNumber":3,"parameterNumberName":"V-component_of_WINDS"},"data":[0,0,0,0,0,0,0,0,0,0,0,0,0,0,0,0,0,0,0,0,0,0,0,0,0,0,0,0,0,0,0,0,0,0,0,0,0,0,0,0,0,0,0,0,0,0,0,0,0,0,0,0,0,0,0,0,0,0,1.6838,1.6838,0,1.6854,1.6854,1.6854,1.6816,1.6815,1.6814,1.6813,1.6827,1.6828,1.683,0,0,0,0,0,0,0,0,0,0,0,0,0,1.6774,1.6776,1.6838,1.6838,1.6839,1.6854,1.6854,1.6854,1.6817,1.6815,1.6814,1.6812,1.6826,1.6828,1.683,0,0,0,0,0,0,0,0,0,0,0,0,0,1.6797,1.6776,1.6838,1.6822,1.682,1.6854,1.6854,1.6854,1.6817,1.6815,1.6813,1.6812,1.6826,1.6828,1.683,1.688,0,0,1.6837,1.6838,0,0,0,0,0,0,0,0,1.6796,1.6799,1.6824,1.6823,1.6821,1.6831,1.6837,1.6863,1.6817,1.6818,1.6813,1.6811,1.683,1.6831,1.6838,1.688,1.6881,1.6837,1.6838,1.6839,1.684,0,0,0,0,0,0,0,1.6794,1.6799,1.6844,1.6824,1.6823,1.6813,1.6814,1.6841,1.6834,1.6818,1.6815,1.6818,1.6829,1.6836,1.6838,1.6881,1.6837,1.6839,1.684,1.6841,1.6966,1.6967,0,0,0,0,0,0,1.6795,1.6798,1.6844,1.6845,1.6804,1.6816,1.6817,1.683,1.6833,1.6832,1.6819,1.6816,1.6833,1.6836,1.6839,1.6897,1.6839,1.6841,1.6843,1.6964,1.6966,1.6968,0,0,0,0,0,0,1.6794,1.68,1.6843,1.682,1.6825,1.6819,1.6833,1.6831,1.6839,1.6834,1.6832,1.6828,1.6832,1.6835,1.687,1.6897,1.6842,1.6844,1.6961,1.6964,1.6967,1.7015,0,0,0,0,0,0,1.6792,1.6799,1.6818,1.6821,1.6827,1.6875,1.6835,1.6833,1.6843,1.6839,1.6842,1.6841,1.6831,1.6867,1.6872,1.6899,1.6846,1.6959,1.6963,1.6966,1.701,1.7019,1.7026,0,0,0,0,0,1.679,1.683,1.6819,1.6825,1.685,1.6876,1.6879,1.6867,1.6845,1.6864,1.6862,1.6841,1.6894,1.6871,1.6876,1.6904,1.6957,1.6962,1.6966,1.7007,1.7017,1.7026,0,0,0,0,0,0,1.6829,1.683,1.6818,1.6861,1.6869,1.687,1.6893,1.6878,1.6892,1.6887,1.6871,1.6872,1.691,1.6911,1.6885,1.6953,1.6922,1.6927,1.6951,1.696,1.6968,1.6966,1.6848,0,0,0,0,0,1.6843,1.6865,1.6864,1.6902,1.6907,1.69,1.691,1.69,1.6908,1.6911,1.6911,1.6918,1.6936,1.6949,1.6965,1.7011,1.7011,1.7033,1.7041,1.7047,1.7052,1.7077,1.7086,1.6983,1.6983,1.6983,0,0,1.6871,1.6874,1.6889,1.691,1.6915,1.6937,1.6902,1.6927,1.6944,1.6914,1.6947,1.6948,1.6955,1.6996,1.7014,1.6998,1.7081,1.7053,1.7058,1.7059,1.7082,1.7092,1.7101,1.6986,1.6985,1.6985,0,0,1.6934,1.6939,1.6971,1.6977,1.6986,1.6982,1.699,1.6994,1.6993,1.7026,1.7005,1.7024,1.7056,1.7062,1.7069,1.7137,1.7119,1.7143,1.7183,1.7207,1.7215,1.7222,1.7246,1.7255,1.7148,1.7148,1.7148,0,1.6967,1.7001,1.6989,1.7016,1.7026,1.7002,1.7034,1.7041,1.7055,1.7062,1.7044,1.7084,1.7088,1.713,1.7147,1.7153,1.7162,1.7142,1.7215,1.7222,1.7229,1.7251,1.7261,1.7151,1.7151,1.7151,1.715,0,1.7042,1.7066,1.709,1.7106,1.7119,1.7148,1.7141,1.7155,1.7145,1.7142,1.7176,1.718,1.7197,1.7207,1.7196,1.7248,1.7238,1.7218,1.7186,1.7242,1.7263,1.7271,1.7155,1.7154,1.7153,1.7153,0,0,1.7127,1.7137,1.7146,1.7154,1.7163,1.7181,1.721,1.7228,1.7241,1.7251,1.7275,1.7303,1.7286,1.7294,1.7285,1.7306,1.736,1.7284,1.7284,1.7298,1.7417,1.7431,1.7442,1.7349,1.735,1.7352,1.7417,0,1.7189,1.7239,1.7231,1.7279,1.7302,1.728,1.7306,1.7314,1.7313,1.7331,1.7329,1.735,1.7325,1.733,1.7351,1.7349,1.7384,1.7345,1.737,1.7371,1.7368,1.7453,1.7467,1.7528,1.7425,1.7426,1.7427,0,1.7267,1.7283,1.7334,1.7341,1.735,1.7373,1.739,1.7408,1.7417,1.7415,1.7426,1.7412,1.7441,1.741,1.7449,1.7423,1.7433,1.7434,1.7436,1.7437,1.7402,1.7455,1.7547,1.7556,1.744,1.7439,1.7438,0,1.7324,1.7358,1.7393,1.74,1.7409,1.7426,1.7431,1.7438,1.745,1.7465,1.7472,1.7489,1.7499,1.7512,1.7504,1.7482,1.7545,1.7513,1.7543,1.7544,1.7556,1.7555,1.765,1.7564,1.7564,1.7564,1.7564,0,1.7394,1.7426,1.7419,1.7441,1.7477,1.7467,1.7502,1.7504,1.7511,1.7533,1.7516,1.7536,1.7524,1.7544,1.7538,1.7571,1.7576,1.7574,1.7572,1.7575,1.7576,1.7581,1.7576,1.7566,1.7566,1.7565,1.7565,0,1.7463,1.746,1.7497,1.7503,1.7506,1.7532,1.7537,1.7557,1.7556,1.7583,1.7589,1.7586,1.7609,1.7602,1.7626,1.7622,1.7665,1.7657,1.7662,1.766,1.769,1.7687,1.7792,1.7805,1.7711,1.7712,1.7713,0,1.7507,1.7531,1.7541,1.7555,1.7562,1.7584,1.7596,1.7588,1.7601,1.7615,1.7634,1.7655,1.7671,1.7708,1.7707,1.7726,1.7718,1.7754,1.7721,1.7724,1.7718,1.7717,1.7719,1.776,1.7761,1.7762,1.7762,0,1.7585,1.7583,1.7602,1.7622,1.7638,1.7652,1.7665,1.7677,1.767,1.7686,1.7709,1.7722,1.7748,1.7769,1.7786,1.779,1.7775,1.7773,1.7781,1.7784,1.7786,1.7785,1.7679,1.777,1.777,1.7769,1.7769,1.7768,1.7643,1.7664,1.7675,1.7697,1.7707,1.772,1.7739,1.7741,1.7761,1.7781,1.7775,1.7802,1.7812,1.7833,1.784,1.786,1.7847,1.7858,1.7861,1.7864,1.7868,1.7784,1.7863,1.7863,1.7863,1.7863,1.7863,0,1.772,1.7727,1.7748,1.7767,1.7785,1.7771,1.7785,1.7801,1.7825,1.7836,1.7853,1.788,1.7901,1.7903,1.7923,1.7939,1.7933,1.7944,1.7943,1.7944,1.7879,1.787,1.7949,1.7949,1.7949,1.7949,1.7949,1.7949,1.7762,1.7798,1.7798,1.7838,1.7844,1.7871,1.788,1.7892,1.7901,1.7932,1.795,1.7952,1.796,1.798,1.7998,1.7999,1.8006,1.8021,1.8018,1.7957,1.7948,1.794,1.7931,1.8022,1.8023,1.8081,1.8082,1.8082]}]]